カタログに戻る

STARLINK-35579

運用中通信VLEO
NORAD 66562·PAYLOAD·🇺🇸 United States

打ち上げ Nov 21, 2025 から Cape Canaveral Space Force Station

Loading…

次のパス (今後24時間)

TLE

最新Source: CelesTrak SupGP

元期: Sep 14, 2026, 14:54 UTC

1 66562C 25268F   26257.62131944 -.00045688  00000+0 -16552-2 0  2570
2 66562  43.0043   0.0820 0001773 279.5871 107.1537 15.27592190    14

AllMySatでSTARLINK-35579をリアルタイム追跡

Download on the App Store